Language: 


Des rapports , des résumés tant et plus, au choix de chacun....


Données statistiques de la station
Quotidien Rapport Septembre 26, 2017 Unités:  Anglais    Métrique   les deux
« Précédent Jour
Suivant Jour »
Quotidien Hebdomadaire Mensuel Annuel Actuel
  Haut: Bas: Moyen:
Température: 73 °F 32 °F 60.4 °F
Pt de rosée: 64.4 °F 53.6 °F 56.1 °F
Humidité: 98 % 0 % 86 %
Vitesse du vent: 6.3 mph 0 mph 1.6 mph
Rafales: 7.6 mph - -
Vent:- - East
Pression: 30.2 in 30.1 in -
Précipitation: 0 in    
Historical Graphs
 
 
Données statistiques pour Septembre 26, 2017
Heure Température Point de rosée Pression Vent Vitesse du vent Refales Humidité Pluie (taux horaire)
00:02 56.5 °F 55.4 °F 30.1 in North 2.7 mph 4.3 mph 94 % 0 in
00:07 56.5 °F 55.4 °F 30.1 in Calm   4 mph 94 % 0 in
00:12 56.5 °F 55.4 °F 30.1 in Calm   3.6 mph 95 % 0 in
00:17 56.5 °F 55.4 °F 30.1 in Calm   4 mph 95 % 0 in
00:22 56.5 °F 55.4 °F 30.1 in NNE 3.4 mph 4.3 mph 95 % 0 in
00:27 56.5 °F 55.4 °F 30.1 in NNE 2.7 mph 4.3 mph 95 % 0 in
00:32 56.3 °F 55.4 °F 30.1 in North 3.4 mph 4 mph 95 % 0 in
00:37 56.3 °F 55.4 °F 30.1 in NNE 3.4 mph 4.7 mph 95 % 0 in
00:42 56.1 °F 55.4 °F 30.1 in Calm   4.7 mph 95 % 0 in
00:47 55.9 °F 55.4 °F 30.1 in NE 2.9 mph 3.4 mph 95 % 0 in
00:52 55.9 °F 55.4 °F 30.1 in Calm   3.4 mph 95 % 0 in
00:57 55.6 °F 55.4 °F 30.1 in Calm   2.9 mph 95 % 0 in
01:02 55.6 °F 55.4 °F 30.1 in Calm   2.9 mph 95 % 0 in
01:07 55.2 °F 55.4 °F 30.1 in Calm   1.3 mph 95 % 0 in
01:12 55.2 °F 55.4 °F 30.1 in Calm     95 % 0 in
01:17 55.4 °F 55.4 °F 30.1 in Calm   3.6 mph 96 % 0 in
01:23 55.4 °F 55.4 °F 30.1 in North 2.9 mph 4.7 mph 96 % 0 in
01:28 55.4 °F 55.4 °F 30.1 in NNE 3.1 mph 4.7 mph 96 % 0 in
01:33 55.6 °F 55.4 °F 30.1 in Calm   4.3 mph 97 % 0 in
01:38 55.4 °F 55.4 °F 30.1 in Calm   4 mph 97 % 0 in
01:43 55.4 °F 55.4 °F 30.1 in NNE 2.5 mph 3.6 mph 97 % 0 in
01:48 55.2 °F 55.4 °F 30.1 in NNE 3.1 mph 3.8 mph 97 % 0 in
01:53 55.2 °F 55.4 °F 30.1 in Calm   3.8 mph 97 % 0 in
01:58 55 °F 55.4 °F 30.1 in NE 3.1 mph 3.1 mph 97 % 0 in
02:03 55 °F 55.4 °F 30.1 in Calm   4 mph 97 % 0 in
02:08 54.7 °F 55.4 °F 30.1 in NNE 3.4 mph 4 mph 97 % 0 in
02:13 54.7 °F 55.4 °F 30.1 in NNE 0.9 mph 3.8 mph 97 % 0 in
02:18 54.7 °F 55.4 °F 30.1 in Calm   4 mph 97 % 0 in
02:23 54.7 °F 55.4 °F 30.1 in NE 4.9 mph 4.9 mph 97 % 0 in
02:28 54.7 °F 55.4 °F 30.1 in NNE 5.4 mph 5.6 mph 98 % 0 in
02:33 54.5 °F 55.4 °F 30.1 in NE 2.7 mph 5.6 mph 97 % 0 in
02:38 54.5 °F 55.4 °F 30.1 in North 3.4 mph 4.9 mph 97 % 0 in
02:43 54.3 °F 53.6 °F 30.1 in NNE 3.4 mph 3.4 mph 97 % 0 in
02:48 54.1 °F 53.6 °F 30.1 in Calm   3.6 mph 97 % 0 in
02:53 54 °F 53.6 °F 30.1 in NE 3.1 mph 3.8 mph 98 % 0 in
02:58 53.8 °F 53.6 °F 30.1 in NNE 2 mph 3.8 mph 98 % 0 in
03:04 32 °F 53.6 °F 30.1 in NNE 2.7 mph 3.1 mph 0 % 0 in
03:09 53.4 °F 53.6 °F 30.1 in NE 2.7 mph 4.3 mph 98 % 0 in
03:14 53.4 °F 53.6 °F 30.1 in NNE 2 mph 4.3 mph 98 % 0 in
03:19 53.4 °F 53.6 °F 30.1 in Calm   4.3 mph 98 % 0 in
03:24 53.6 °F 53.6 °F 30.1 in NNE 2.9 mph 4.3 mph 98 % 0 in
03:29 53.6 °F 53.6 °F 30.1 in NE 2.2 mph 4 mph 98 % 0 in
03:34 53.4 °F 53.6 °F 30.1 in NNE 2.9 mph 4 mph 98 % 0 in
03:39 53.4 °F 53.6 °F 30.1 in NNE 3.8 mph 4 mph 98 % 0 in
03:44 53.4 °F 53.6 °F 30.1 in NE 3.1 mph 3.8 mph 98 % 0 in
03:49 53.4 °F 53.6 °F 30.1 in NNE 2.7 mph 4 mph 98 % 0 in
03:54 53.4 °F 53.6 °F 30.1 in Calm   4 mph 98 % 0 in
03:59 53.4 °F 53.6 °F 30.1 in North 2.5 mph 3.8 mph 98 % 0 in
04:04 53.6 °F 53.6 °F 30.1 in Calm   4 mph 98 % 0 in
04:09 53.6 °F 53.6 °F 30.1 in Calm   4 mph 98 % 0 in
04:14 53.8 °F 53.6 °F 30.1 in NNE 3.1 mph 5.6 mph 98 % 0 in
04:19 53.6 °F 53.6 °F 30.1 in NNE 4.9 mph 5.8 mph 98 % 0 in
04:24 53.6 °F 53.6 °F 30.1 in NE 2 mph 5.8 mph 98 % 0 in
04:29 53.4 °F 53.6 °F 30.1 in NNE 3.6 mph 4.7 mph 98 % 0 in
04:34 53.4 °F 53.6 °F 30.1 in Calm   3.8 mph 98 % 0 in
04:39 53.4 °F 53.6 °F 30.1 in Calm   3.8 mph 98 % 0 in
04:44 53.4 °F 53.6 °F 30.1 in Calm   2.9 mph 98 % 0 in
04:49 53.6 °F 53.6 °F 30.1 in Calm   3.1 mph 98 % 0 in
04:54 53.6 °F 53.6 °F 30.1 in Calm   3.6 mph 98 % 0 in
04:59 53.6 °F 53.6 °F 30.1 in ENE 2.9 mph 3.6 mph 98 % 0 in
05:04 53.8 °F 53.6 °F 30.1 in Calm   3.8 mph 98 % 0 in
05:09 53.8 °F 53.6 °F 30.1 in Calm   3.8 mph 98 % 0 in
05:15 54 °F 53.6 °F 30.1 in NNE 2.7 mph 2.7 mph 98 % 0 in
05:21 54 °F 53.6 °F 30.1 in North 2.9 mph 3.6 mph 98 % 0 in
05:22 54 °F 53.6 °F 30.1 in Calm   3.6 mph 98 % 0 in
05:26 54 °F 53.6 °F 30.1 in Calm   3.6 mph 98 % 0 in
05:29 54 °F 53.6 °F 30.1 in NE 1.6 mph 3.6 mph 98 % 0 in
05:32 54 °F 53.6 °F 30.1 in NNE 2.9 mph 2.9 mph 98 % 0 in
05:37 54 °F 53.6 °F 30.1 in NNE 3.1 mph 3.1 mph 98 % 0 in
05:42 54 °F 53.6 °F 30.1 in Calm   3.1 mph 98 % 0 in
05:48 54 °F 53.6 °F 30.1 in Calm   1.3 mph 98 % 0 in
05:53 54 °F 53.6 °F 30.1 in Calm     98 % 0 in
05:58 54 °F 53.6 °F 30.1 in Calm     98 % 0 in
06:03 54 °F 53.6 °F 30.1 in Calm     98 % 0 in
06:08 54 °F 53.6 °F 30.1 in Calm   2.2 mph 98 % 0 in
06:13 54.1 °F 55.4 °F 30.1 in Calm   2.2 mph 98 % 0 in
06:23 54.1 °F 55.4 °F 30.1 in Calm   3.1 mph 98 % 0 in
06:28 54.1 °F 55.4 °F 30.1 in Calm   3.1 mph 98 % 0 in
06:33 54.1 °F 55.4 °F 30.1 in Calm   2.2 mph 98 % 0 in
06:43 54.3 °F 55.4 °F 30.1 in Calm   2.7 mph 98 % 0 in
06:48 54.3 °F 55.4 °F 30.1 in Calm     98 % 0 in
06:53 54.3 °F 55.4 °F 30.1 in Calm     98 % 0 in
06:58 54.3 °F 55.4 °F 30.1 in Calm     98 % 0 in
07:03 54.3 °F 55.4 °F 30.1 in Calm     98 % 0 in
07:13 54.5 °F 55.4 °F 30.1 in Calm   6.3 mph 98 % 0 in
07:18 54.5 °F 55.4 °F 30.1 in Calm   5.6 mph 98 % 0 in
07:23 54.5 °F 55.4 °F 30.1 in Calm   4 mph 98 % 0 in
07:28 54.5 °F 55.4 °F 30.1 in Calm   4 mph 98 % 0 in
07:33 54.5 °F 55.4 °F 30.1 in Calm   4 mph 98 % 0 in
07:38 54.5 °F 55.4 °F 30.1 in NE 2.5 mph 2.5 mph 98 % 0 in
07:43 54.5 °F 55.4 °F 30.1 in NNE 2.7 mph 2.7 mph 98 % 0 in
07:48 54.5 °F 55.4 °F 30.1 in Calm   2.7 mph 98 % 0 in
07:49 54.5 °F 55.4 °F 30.1 in Calm   2.7 mph 98 % 0 in
07:54 54.7 °F 55.4 °F 30.1 in Calm   2.7 mph 98 % 0 in
07:59 54.7 °F 55.4 °F 30.1 in North 2.2 mph 2.5 mph 98 % 0 in
08:04 54.9 °F 55.4 °F 30.2 in Calm   2.9 mph 98 % 0 in
08:09 55 °F 55.4 °F 30.2 in Calm   2.9 mph 98 % 0 in
08:14 55 °F 55.4 °F 30.2 in Calm   0.9 mph 98 % 0 in
08:19 55 °F 55.4 °F 30.2 in Calm     98 % 0 in
08:20 55 °F 55.4 °F 30.2 in Calm     98 % 0 in
08:25 55.2 °F 55.4 °F 30.2 in Calm     98 % 0 in
08:30 55.2 °F 55.4 °F 30.2 in Calm     98 % 0 in
08:35 55.4 °F 55.4 °F 30.2 in Calm     98 % 0 in
08:40 55.4 °F 55.4 °F 30.2 in Calm     98 % 0 in
08:45 55.6 °F 55.4 °F 30.2 in Calm   2.2 mph 98 % 0 in
08:50 55.8 °F 55.4 °F 30.2 in Calm   3.8 mph 98 % 0 in
08:55 55.8 °F 55.4 °F 30.2 in Calm   3.8 mph 98 % 0 in
09:00 56.1 °F 55.4 °F 30.2 in Calm   2.9 mph 98 % 0 in
09:05 57.2 °F 57.2 °F 30.2 in Calm   1.6 mph 98 % 0 in
09:10 57.4 °F 57.2 °F 30.2 in Calm   3.6 mph 98 % 0 in
09:15 57.4 °F 57.2 °F 30.2 in Calm   4 mph 98 % 0 in
09:20 57.9 °F 57.2 °F 30.2 in NE 2.2 mph 4 mph 98 % 0 in
09:25 57.9 °F 57.2 °F 30.2 in North 1.6 mph 3.8 mph 98 % 0 in
09:30 57.9 °F 57.2 °F 30.2 in Calm   2.2 mph 98 % 0 in
09:35 57.9 °F 57.2 °F 30.2 in Calm   3.8 mph 98 % 0 in
09:40 57.9 °F 57.2 °F 30.2 in Calm   3.8 mph 98 % 0 in
09:45 57.9 °F 57.2 °F 30.2 in Calm   3.1 mph 98 % 0 in
09:50 58.1 °F 59 °F 30.2 in NNE 2.5 mph 2.5 mph 98 % 0 in
09:55 58.3 °F 59 °F 30.2 in Calm   2.5 mph 98 % 0 in
10:05 58.5 °F 57.2 °F 30.2 in Calm   2.5 mph 97 % 0 in
10:10 58.5 °F 57.2 °F 30.2 in Calm   2.5 mph 97 % 0 in
10:15 58.6 °F 57.2 °F 30.2 in Calm   2 mph 97 % 0 in
10:20 58.6 °F 57.2 °F 30.2 in Calm   2.7 mph 97 % 0 in
10:25 59 °F 59 °F 30.2 in NE 3.1 mph 4 mph 97 % 0 in
10:30 59.4 °F 59 °F 30.2 in Calm   4 mph 97 % 0 in
10:35 59.5 °F 59 °F 30.2 in Calm   3.6 mph 97 % 0 in
10:40 60.1 °F 59 °F 30.2 in Calm   2.9 mph 97 % 0 in
10:45 60.3 °F 59 °F 30.2 in Calm   2.9 mph 97 % 0 in
10:50 60.4 °F 59 °F 30.2 in Calm   4 mph 96 % 0 in
10:55 60.4 °F 59 °F 30.2 in Calm   4 mph 96 % 0 in
11:01 60.4 °F 59 °F 30.1 in Calm   1.1 mph 96 % 0 in
11:06 60.4 °F 59 °F 30.1 in Calm     96 % 0 in
11:11 60.4 °F 59 °F 30.1 in Calm   1.6 mph 96 % 0 in
11:16 61.5 °F 60.8 °F 30.2 in Calm   1.6 mph 96 % 0 in
11:21 62.6 °F 62.6 °F 30.2 in Calm   3.4 mph 96 % 0 in
11:26 64 °F 62.6 °F 30.2 in Calm   3.6 mph 95 % 0 in
11:31 64 °F 62.6 °F 30.1 in Calm   4.3 mph 95 % 0 in
11:36 65.8 °F 64.4 °F 30.1 in NNE 5.4 mph 5.4 mph 93 % 0 in
11:41 66.4 °F 64.4 °F 30.1 in North 3.1 mph 5.4 mph 92 % 0 in
11:46 66.4 °F 64.4 °F 30.2 in NNE 3.8 mph 4.3 mph 92 % 0 in
11:51 67.5 °F 64.4 °F 30.2 in NE 0.9 mph 4.3 mph 89 % 0 in
11:56 67.5 °F 64.4 °F 30.2 in North 5.4 mph 6 mph 89 % 0 in
12:01 67.8 °F 64.4 °F 30.2 in NE 6 mph 6 mph 85 % 0 in
12:06 67.8 °F 62.6 °F 30.2 in NE 4.3 mph 6.3 mph 83 % 0 in
12:11 67.8 °F 62.6 °F 30.2 in NE 2.7 mph 6.3 mph 83 % 0 in
12:16 67.8 °F 62.6 °F 30.1 in NNE 6 mph 6 mph 83 % 0 in
12:21 67.8 °F 62.6 °F 30.1 in ENE 5.4 mph 6 mph 83 % 0 in
12:26 67.8 °F 62.6 °F 30.1 in ENE 0.9 mph 5.4 mph 83 % 0 in
12:36 69.8 °F 62.6 °F 30.1 in NE 2.7 mph 5.8 mph 79 % 0 in
12:41 70.2 °F 62.6 °F 30.1 in Calm   4.9 mph 76 % 0 in
12:46 70.7 °F 62.6 °F 30.2 in NE 5.6 mph 6 mph 76 % 0 in
12:51 71.1 °F 62.6 °F 30.2 in NE 3.6 mph 6 mph 74 % 0 in
12:56 70 °F 60.8 °F 30.2 in Calm   6 mph 71 % 0 in
13:02 69.8 °F 60.8 °F 30.2 in Calm   6.3 mph 71 % 0 in
13:07 70 °F 60.8 °F 30.2 in NE 3.6 mph 6.3 mph 73 % 0 in
13:12 70.2 °F 60.8 °F 30.2 in East 3.8 mph 3.8 mph 73 % 0 in
13:17 69.6 °F 60.8 °F 30.1 in NE 4.9 mph 4.9 mph 72 % 0 in
13:22 69.1 °F 59 °F 30.1 in NE 3.4 mph 4.9 mph 70 % 0 in
13:27 68.9 °F 59 °F 30.1 in Calm   5.6 mph 70 % 0 in
13:32 68.4 °F 59 °F 30.1 in East 0.9 mph 5.6 mph 72 % 0 in
13:37 68.4 °F 59 °F 30.1 in ESE 5.4 mph 5.8 mph 72 % 0 in
13:42 68.4 °F 59 °F 30.1 in East 4.3 mph 6 mph 72 % 0 in
13:47 71.8 °F 60.8 °F 30.1 in NE 4 mph 6 mph 69 % 0 in
13:52 71.8 °F 60.8 °F 30.1 in SE 2.9 mph 6.3 mph 69 % 0 in
13:57 71.8 °F 60.8 °F 30.1 in ENE 6.3 mph 7.6 mph 69 % 0 in
14:02 71.8 °F 60.8 °F 30.1 in NNE 5.4 mph 7.6 mph 69 % 0 in
14:07 71.8 °F 60.8 °F 30.1 in NNW 1.3 mph 5.8 mph 69 % 0 in
14:12 71.8 °F 60.8 °F 30.1 in Calm   5.8 mph 69 % 0 in
14:17 70.3 °F 57.2 °F 30.2 in NE 4.7 mph 5.6 mph 63 % 0 in
14:22 70.9 °F 59 °F 30.2 in Calm   5.6 mph 65 % 0 in
14:27 70.9 °F 57.2 °F 30.2 in Calm   4.7 mph 63 % 0 in
14:33 71.8 °F 59 °F 30.2 in Calm     64 % 0 in
14:38 72.5 °F 59 °F 30.2 in Calm     63 % 0 in
14:43 72.7 °F 59 °F 30.2 in Calm     62 % 0 in
14:48 72.7 °F 59 °F 30.2 in Calm     62 % 0 in
14:53 73 °F 59 °F 30.2 in Calm     60 % 0 in
14:58 73 °F 57.2 °F 30.2 in Calm     58 % 0 in
15:03 73 °F 57.2 °F 30.2 in Calm     58 % 0 in
15:08 72.5 °F 57.2 °F 30.2 in Calm     59 % 0 in
15:13 72.1 °F 55.4 °F 30.2 in Calm     56 % 0 in
15:18 72.5 °F 57.2 °F 30.2 in Calm     58 % 0 in
15:23 72 °F 55.4 °F 30.2 in Calm     57 % 0 in
15:29 71.2 °F 55.4 °F 30.2 in Calm     56 % 0 in
15:34 71.6 °F 55.4 °F 30.2 in Calm     57 % 0 in
15:39 71.6 °F 55.4 °F 30.2 in Calm     57 % 0 in
15:44 71.8 °F 55.4 °F 30.2 in Calm     58 % 0 in
15:49 71.8 °F 55.4 °F 30.2 in Calm     56 % 0 in
15:54 72 °F 55.4 °F 30.2 in Calm     57 % 0 in
15:59 72.1 °F 55.4 °F 30.2 in Calm     57 % 0 in
16:04 72.5 °F 57.2 °F 30.2 in Calm     58 % 0 in
16:09 72.3 °F 55.4 °F 30.2 in Calm     56 % 0 in
16:14 72.1 °F 55.4 °F 30.2 in Calm     57 % 0 in
16:19 72.1 °F 55.4 °F 30.2 in ENE 2.9 mph 2.9 mph 56 % 0 in
16:24 72 °F 55.4 °F 30.2 in East 3.1 mph 3.1 mph 57 % 0 in
16:29 72.1 °F 55.4 °F 30.2 in East 3.1 mph 3.1 mph 57 % 0 in
16:34 72.5 °F 57.2 °F 30.2 in East 3.1 mph 3.1 mph 59 % 0 in
16:39 72.7 °F 57.2 °F 30.2 in East 3.1 mph 3.1 mph 58 % 0 in
16:44 72.3 °F 55.4 °F 30.2 in East 3.1 mph 3.1 mph 55 % 0 in
16:49 71.8 °F 53.6 °F 30.2 in East 3.1 mph 3.1 mph 53 % 0 in
16:54 71.6 °F 53.6 °F 30.2 in East 3.1 mph 3.1 mph 53 % 0 in
17:04 71.1 °F 55.4 °F 30.2 in East 3.1 mph 3.1 mph 58 % 0 in
17:09 70.9 °F 55.4 °F 30.2 in East 3.1 mph 3.1 mph 58 % 0 in
17:14 70.9 °F 55.4 °F 30.2 in East 3.1 mph 3.1 mph 59 % 0 in
17:19 70.9 °F 57.2 °F 30.2 in East 3.1 mph 3.1 mph 60 % 0 in
17:25 70.7 °F 57.2 °F 30.2 in East 3.1 mph 3.1 mph 60 % 0 in
17:27 70.7 °F 57.2 °F 30.2 in East 3.1 mph 3.1 mph 60 % 0 in
17:33 70.5 °F 55.4 °F 30.2 in East 3.1 mph 3.1 mph 59 % 0 in
17:38 70.2 °F 55.4 °F 30.2 in East 3.1 mph 3.1 mph 60 % 0 in
17:43 70 °F 55.4 °F 30.2 in East 3.1 mph 3.1 mph 59 % 0 in
17:48 69.8 °F 57.2 °F 30.2 in East 3.1 mph 3.1 mph 63 % 0 in
17:53 69.4 °F 55.4 °F 30.2 in East 3.1 mph 3.1 mph 63 % 0 in
17:58 68.7 °F 55.4 °F 30.2 in East 3.1 mph 3.1 mph 64 % 0 in
18:03 68.5 °F 57.2 °F 30.2 in East 3.1 mph 3.1 mph 65 % 0 in
18:08 68.2 °F 55.4 °F 30.2 in East 3.1 mph 3.1 mph 66 % 0 in
18:13 68 °F 55.4 °F 30.2 in East 3.1 mph 3.1 mph 66 % 0 in
18:18 67.6 °F 55.4 °F 30.2 in East 3.1 mph 3.1 mph 67 % 0 in
18:23 67.5 °F 55.4 °F 30.2 in East 3.1 mph 3.1 mph 67 % 0 in
18:28 67.1 °F 57.2 °F 30.2 in East 3.1 mph 3.1 mph 68 % 0 in
18:33 66.9 °F 55.4 °F 30.2 in East 3.1 mph 3.1 mph 69 % 0 in
18:38 66.9 °F 55.4 °F 30.2 in East 3.1 mph 3.1 mph 69 % 0 in
18:40 66.9 °F 55.4 °F 30.2 in East 3.1 mph 3.1 mph 69 % 0 in
18:45 66.7 °F 55.4 °F 30.2 in East 3.1 mph 3.1 mph 69 % 0 in
18:50 66.6 °F 57.2 °F 30.2 in East 3.1 mph 3.1 mph 70 % 0 in
18:55 66.4 °F 55.4 °F 30.2 in East 3.1 mph 3.1 mph 70 % 0 in
19:00 66 °F 57.2 °F 30.2 in East 3.1 mph 3.1 mph 71 % 0 in
19:05 65.5 °F 55.4 °F 30.2 in East 3.1 mph 3.1 mph 71 % 0 in
19:10 64.9 °F 55.4 °F 30.2 in East 3.1 mph 3.1 mph 73 % 0 in
19:15 64.2 °F 55.4 °F 30.2 in East 3.1 mph 3.1 mph 73 % 0 in
19:20 64 °F 55.4 °F 30.2 in East 3.1 mph 3.1 mph 74 % 0 in
19:25 63.3 °F 55.4 °F 30.2 in East 3.1 mph 3.1 mph 75 % 0 in
19:30 62.8 °F 55.4 °F 30.2 in East 3.1 mph 3.1 mph 76 % 0 in
19:35 62.4 °F 55.4 °F 30.2 in East 3.1 mph 3.1 mph 79 % 0 in
19:40 62.2 °F 55.4 °F 30.2 in East 3.1 mph 3.1 mph 78 % 0 in
19:45 61.7 °F 55.4 °F 30.2 in East 3.1 mph 3.1 mph 79 % 0 in
19:50 61.5 °F 55.4 °F 30.2 in East 3.1 mph 3.1 mph 79 % 0 in
19:55 60.6 °F 55.4 °F 30.2 in East 3.1 mph 3.1 mph 81 % 0 in
20:00 60.4 °F 55.4 °F 30.2 in East 3.1 mph 3.1 mph 81 % 0 in
20:05 60.3 °F 55.4 °F 30.2 in East 3.1 mph 3.1 mph 82 % 0 in
20:10 60.1 °F 55.4 °F 30.2 in East 3.1 mph 3.1 mph 82 % 0 in
20:15 59.9 °F 55.4 °F 30.2 in East 3.1 mph 3.1 mph 82 % 0 in
20:20 59.7 °F 55.4 °F 30.2 in East 3.1 mph 3.1 mph 83 % 0 in
20:25 59.4 °F 55.4 °F 30.2 in East 3.1 mph 3.1 mph 83 % 0 in
20:31 59 °F 53.6 °F 30.2 in East 3.1 mph 3.1 mph 83 % 0 in
20:36 58.6 °F 53.6 °F 30.2 in East 3.1 mph 3.1 mph 84 % 0 in
20:41 58.3 °F 53.6 °F 30.2 in East 3.1 mph 3.1 mph 84 % 0 in
20:46 58.1 °F 55.4 °F 30.2 in East 3.1 mph 3.1 mph 85 % 0 in
20:51 57.7 °F 53.6 °F 30.2 in East 3.1 mph 3.1 mph 85 % 0 in
20:56 57.2 °F 53.6 °F 30.2 in East 3.1 mph 3.1 mph 86 % 0 in
21:01 57 °F 53.6 °F 30.2 in East 3.1 mph 3.1 mph 86 % 0 in
21:06 56.5 °F 53.6 °F 30.2 in East 3.1 mph 3.1 mph 87 % 0 in
21:11 56.1 °F 53.6 °F 30.2 in East 3.1 mph 3.1 mph 87 % 0 in
21:16 55.8 °F 53.6 °F 30.2 in Calm     87 % 0 in
21:21 55.9 °F 53.6 °F 30.2 in Calm     88 % 0 in
21:27 55.9 °F 53.6 °F 30.2 in Calm     90 % 0 in
21:32 55.8 °F 53.6 °F 30.2 in Calm     90 % 0 in
21:35 55.8 °F 53.6 °F 30.2 in Calm     90 % 0 in
21:40 55.9 °F 53.6 °F 30.2 in Calm     91 % 0 in
21:45 55.9 °F 53.6 °F 30.2 in Calm     92 % 0 in
21:50 55.9 °F 53.6 °F 30.2 in Calm     92 % 0 in
21:55 55.9 °F 53.6 °F 30.2 in Calm     92 % 0 in
22:00 55.8 °F 53.6 °F 30.2 in Calm     92 % 0 in
22:05 55.8 °F 55.4 °F 30.2 in Calm     93 % 0 in
22:10 55.8 °F 55.4 °F 30.2 in Calm     93 % 0 in
22:15 55.8 °F 55.4 °F 30.2 in Calm     94 % 0 in
22:20 55.9 °F 55.4 °F 30.2 in Calm     94 % 0 in
22:25 55.9 °F 55.4 °F 30.2 in Calm     94 % 0 in
22:30 55.9 °F 55.4 °F 30.2 in Calm     94 % 0 in
22:35 55.9 °F 55.4 °F 30.2 in Calm     95 % 0 in
22:40 55.9 °F 55.4 °F 30.2 in North 2 mph 3.6 mph 95 % 0 in
22:45 55.9 °F 55.4 °F 30.2 in Calm   4 mph 95 % 0 in
22:50 55.9 °F 55.4 °F 30.2 in NE 2.7 mph 4 mph 95 % 0 in
22:55 55.9 °F 55.4 °F 30.2 in NE 2.5 mph 3.1 mph 95 % 0 in
23:00 55.9 °F 55.4 °F 30.2 in NNE 2.5 mph 4.3 mph 95 % 0 in
23:05 55.9 °F 55.4 °F 30.2 in Calm   4.3 mph 95 % 0 in
23:10 55.9 °F 55.4 °F 30.2 in Calm   4 mph 95 % 0 in
23:15 55.9 °F 55.4 °F 30.2 in Calm   3.4 mph 95 % 0 in
23:21 55.9 °F 55.4 °F 30.2 in Calm   2.9 mph 95 % 0 in
23:26 55.9 °F 55.4 °F 30.2 in Calm   1.3 mph 95 % 0 in
23:31 55.9 °F 55.4 °F 30.2 in Calm     95 % 0 in
23:36 55.9 °F 55.4 °F 30.2 in Calm     95 % 0 in
23:41 55.9 °F 55.4 °F 30.2 in Calm     95 % 0 in
23:46 55.9 °F 55.4 °F 30.2 in Calm     95 % 0 in
23:51 55.9 °F 55.4 °F 30.2 in Calm     95 % 0 in
23:56 55.9 °F 55.4 °F 30.2 in Calm     95 % 0 in
Le Gheer Warneton
Courtoisie de Weather Underground - 2.25 mb

Mise a jour : 17-12-17 07:17:12
Généré par Cumulus 1.9.4 (1099)